This is the latest recevied weather packets stored in our database for station/object OE9FWV-10. If no packets are shown the sender has not sent any weather packets the latest 10 day(s).
| Time | Temp. | Humidity | Pressure | Rain* | Wind** | Luminosity | Snow |
|---|---|---|---|---|---|---|---|
| 1787740718 | 32.78° C | 28% | 1020.2 hPa | - | - | - | - |
| 1787739818 | 32.22° C | 29% | 1020.3 hPa | - | - | - | - |
| 1787738321 | 31.11° C | 30% | 1020.6 hPa | - | - | - | - |
| 1787737421 | 31.11° C | 31% | 1020.6 hPa | - | - | - | - |
| 1787736520 | 29.44° C | 33% | 1020.7 hPa | - | - | - | - |
| 1787735620 | 30° C | 33% | 1020.8 hPa | - | - | - | - |
| 1787734712 | 28.33° C | 34% | 1020.9 hPa | - | - | - | - |
| 1787733811 | 28.89° C | 34% | 1020.9 hPa | - | - | - | - |
| 1787732905 | 27.78° C | 34% | 1020.9 hPa | - | - | - | - |
| 1787732005 | 27.78° C | 35% | 1021.1 hPa | - | - | - | - |
| 1787731100 | 27.78° C | 35% | 1021.1 hPa | - | - | - | - |
| 1787730199 | 27.22° C | 36% | 1021.1 hPa | - | - | - | - |
| 1787729298 | 27.22° C | 35% | 1021.2 hPa | - | - | - | - |
| 1787728398 | 26.67° C | 36% | 1021.1 hPa | - | - | - | - |
| 1787727498 | 27.22° C | 36% | 1021.2 hPa | - | - | - | - |
| 1787726597 | 26.11° C | 38% | 1021.1 hPa | - | - | - | - |
| 1787725696 | 25.56° C | 38% | 1021 hPa | - | - | - | - |
| 1787724795 | 24.44° C | 39% | 1020.7 hPa | - | - | - | - |
| 1787723894 | 25.56° C | 38% | 1020.7 hPa | - | - | - | - |
| 1787722992 | 24.44° C | 40% | 1020.8 hPa | - | - | - | - |
| 1787722091 | 25° C | 40% | 1020.7 hPa | - | - | - | - |
| 1787721190 | 23.89° C | 40% | 1020.7 hPa | - | - | - | - |
| 1787720290 | 25° C | 40% | 1020.6 hPa | - | - | - | - |
| 1787719389 | 23.89° C | 41% | 1020.4 hPa | - | - | - | - |
| 1787718489 | 24.44° C | 41% | 1020.5 hPa | - | - | - | - |
* Rain since midnight (hover to see other rain measurements)
** Current wind speed in m/s (hover to see current wind gust speed)